SWA2098 KLBB-KDEN

Flight info

Callsign SWA2098
Flight time 1h 8m
Altitude 36000
Route DHT ZIGEE NIIXX4
Aircraft B738/M-VGDW/C

Departure

Time 2026-05-09 13:51
Airport Lubbock Preston Smith International Airport (KLBB)

Arrival

Time 2026-05-09 14:59
Airport Denver International Airport (KDEN)
Time Latitude Longitude Altitude Speed Heading
2026-05-09 13:30 33.65716 -101.82350 3258 ft 0 kts 137°
2026-05-09 13:41 33.65718 -101.82353 3257 ft 1 kts 144°
2026-05-09 13:41 33.65727 -101.82355 3257 ft 2 kts 200°
2026-05-09 13:41 33.65740 -101.82347 3257 ft 2 kts 221°
2026-05-09 13:41 33.65745 -101.82340 3257 ft 1 kts 240°
2026-05-09 13:42 33.65748 -101.82333 3257 ft 0 kts 239°
2026-05-09 13:44 33.65748 -101.82334 3257 ft 0 kts 239°
2026-05-09 13:44 33.65741 -101.82346 3257 ft 5 kts 230°
2026-05-09 13:44 33.65706 -101.82398 3257 ft 9 kts 257°
2026-05-09 13:44 33.65734 -101.82473 3256 ft 11 kts 304°
2026-05-09 13:45 33.65770 -101.82569 3255 ft 14 kts 282°
2026-05-09 13:45 33.65797 -101.82684 3254 ft 14 kts 329°
2026-05-09 13:45 33.65894 -101.82691 3255 ft 13 kts
2026-05-09 13:45 33.65987 -101.82691 3257 ft 14 kts 359°
2026-05-09 13:46 33.66096 -101.82691 3257 ft 17 kts
2026-05-09 13:46 33.66225 -101.82693 3257 ft 20 kts 359°
2026-05-09 13:46 33.66381 -101.82694 3258 ft 23 kts 360°
2026-05-09 13:46 33.66550 -101.82696 3261 ft 25 kts 360°
2026-05-09 13:47 33.66729 -101.82696 3261 ft 26 kts
2026-05-09 13:47 33.66911 -101.82695 3262 ft 24 kts 359°
2026-05-09 13:47 33.67077 -101.82698 3265 ft 22 kts 359°
2026-05-09 13:47 33.67234 -101.82700 3269 ft 22 kts 359°
2026-05-09 13:48 33.67389 -101.82701 3272 ft 22 kts 360°
2026-05-09 13:48 33.67549 -101.82702 3275 ft 24 kts 360°
2026-05-09 13:48 33.67733 -101.82703 3278 ft 28 kts 360°
2026-05-09 13:48 33.67937 -101.82704 3282 ft 29 kts 360°
2026-05-09 13:49 33.68119 -101.82703 3284 ft 23 kts 359°
2026-05-09 13:49 33.68221 -101.82744 3285 ft 13 kts 292°
2026-05-09 13:49 33.68224 -101.82845 3285 ft 11 kts 270°
2026-05-09 13:49 33.68197 -101.82906 3284 ft 8 kts 187°
2026-05-09 13:50 33.68137 -101.82904 3284 ft 8 kts 179°
2026-05-09 13:50 33.67902 -101.82901 3282 ft 70 kts 179°
2026-05-09 13:50 33.67164 -101.82896 3267 ft 137 kts 180°
2026-05-09 13:50 33.66036 -101.82894 3374 ft 179 kts 179°
2026-05-09 13:51 33.64776 -101.82916 3947 ft 190 kts 183°
2026-05-09 13:51 33.63571 -101.83488 4626 ft 197 kts 222°
2026-05-09 13:51 33.62956 -101.85027 4941 ft 222 kts 264°
2026-05-09 13:51 33.63384 -101.86903 5112 ft 253 kts 307°
2026-05-09 13:52 33.64820 -101.88139 5686 ft 264 kts 346°
2026-05-09 13:52 33.66637 -101.88126 6387 ft 266 kts 21°
2026-05-09 13:52 33.68323 -101.87300 7145 ft 271 kts 25°
2026-05-09 13:52 33.70105 -101.86436 7907 ft 279 kts 22°
2026-05-09 13:53 33.71997 -101.85865 8703 ft 286 kts
2026-05-09 13:53 33.73956 -101.85798 9628 ft 286 kts 356°
2026-05-09 13:53 33.75903 -101.86013 10554 ft 287 kts 351°
2026-05-09 13:53 33.77963 -101.86436 10917 ft 310 kts 347°
2026-05-09 13:54 33.80135 -101.86997 11399 ft 326 kts 345°
2026-05-09 13:54 33.82357 -101.87609 12133 ft 333 kts 345°
2026-05-09 13:54 33.84623 -101.88240 12962 ft 338 kts 345°
2026-05-09 13:54 33.86945 -101.88890 13687 ft 346 kts 345°
2026-05-09 13:55 33.89277 -101.89545 14451 ft 351 kts 345°
2026-05-09 13:55 33.91690 -101.90224 15206 ft 357 kts 345°
2026-05-09 13:55 33.94102 -101.90916 15934 ft 363 kts 345°
2026-05-09 13:55 33.96572 -101.91629 16668 ft 368 kts 345°
2026-05-09 13:56 33.99045 -101.92339 17368 ft 373 kts 345°
2026-05-09 13:56 34.01570 -101.93065 18044 ft 378 kts 345°
2026-05-09 13:56 34.04145 -101.93811 18794 ft 380 kts 345°
2026-05-09 13:56 34.06703 -101.94554 19519 ft 382 kts 345°
2026-05-09 13:57 34.09287 -101.95300 20212 ft 385 kts 345°
2026-05-09 13:57 34.11903 -101.96049 20869 ft 388 kts 345°
2026-05-09 13:57 34.14502 -101.96796 21516 ft 390 kts 345°
2026-05-09 13:57 34.17140 -101.97557 22127 ft 392 kts 345°
2026-05-09 13:58 34.19779 -101.98322 22772 ft 393 kts 344°
2026-05-09 13:58 34.22433 -101.99092 23363 ft 396 kts 344°
2026-05-09 13:58 34.25116 -101.99865 23924 ft 398 kts 344°
2026-05-09 13:58 34.27792 -102.00636 24446 ft 401 kts 344°
2026-05-09 13:59 34.30528 -102.01433 24952 ft 404 kts 344°
2026-05-09 13:59 34.33236 -102.02218 25431 ft 406 kts 344°
2026-05-09 13:59 34.36001 -102.03023 25901 ft 409 kts 344°
2026-05-09 13:59 34.38786 -102.03839 26349 ft 412 kts 344°
2026-05-09 14:00 34.41553 -102.04642 26780 ft 415 kts 344°
2026-05-09 14:00 34.43431 -102.05183 27060 ft 417 kts 344°
2026-05-09 14:00 34.47191 -102.06281 27607 ft 421 kts 344°
2026-05-09 14:00 34.50035 -102.07119 28001 ft 423 kts 344°
2026-05-09 14:01 34.52908 -102.07960 28388 ft 426 kts 345°
2026-05-09 14:01 34.55804 -102.08801 28765 ft 428 kts 344°
2026-05-09 14:01 34.58682 -102.09642 29120 ft 431 kts 344°
2026-05-09 14:01 34.61579 -102.10490 29474 ft 433 kts 345°
2026-05-09 14:02 34.64504 -102.11339 29813 ft 436 kts 345°
2026-05-09 14:02 34.67446 -102.12197 30171 ft 437 kts 344°
2026-05-09 14:02 34.70386 -102.13062 30731 ft 433 kts 344°
2026-05-09 14:02 34.73311 -102.13921 31226 ft 431 kts 344°
2026-05-09 14:03 34.76208 -102.14770 31674 ft 430 kts 344°
2026-05-09 14:03 34.79115 -102.15624 32118 ft 429 kts 345°
2026-05-09 14:03 34.82003 -102.16468 32548 ft 428 kts 345°
2026-05-09 14:03 34.84859 -102.17308 32929 ft 428 kts 344°
2026-05-09 14:04 34.87746 -102.18161 33344 ft 426 kts 344°
2026-05-09 14:04 34.90596 -102.18996 33721 ft 426 kts 345°
2026-05-09 14:04 34.93457 -102.19834 34105 ft 425 kts 345°
2026-05-09 14:04 34.96338 -102.20683 34490 ft 424 kts 344°
2026-05-09 14:05 34.99169 -102.21520 34865 ft 423 kts 344°
2026-05-09 14:05 35.02032 -102.22369 35237 ft 422 kts 344°
2026-05-09 14:05 35.04868 -102.23215 35595 ft 421 kts 344°
2026-05-09 14:05 35.07688 -102.24041 35951 ft 420 kts 344°
2026-05-09 14:06 35.13382 -102.25716 36035 ft 422 kts 344°
2026-05-09 14:06 35.19088 -102.27415 36036 ft 419 kts 344°
2026-05-09 14:07 35.24745 -102.29095 36037 ft 419 kts 344°
2026-05-09 14:07 35.30376 -102.30786 36036 ft 420 kts 344°
2026-05-09 14:08 35.36070 -102.32473 36036 ft 422 kts 344°
2026-05-09 14:08 35.41785 -102.34180 36042 ft 427 kts 344°
2026-05-09 14:09 35.47534 -102.35898 36048 ft 430 kts 344°
2026-05-09 14:09 35.53325 -102.37633 36051 ft 429 kts 344°
2026-05-09 14:10 35.61991 -102.40227 36054 ft 429 kts 344°
2026-05-09 14:11 35.67788 -102.41961 36056 ft 430 kts 344°
2026-05-09 14:11 35.73562 -102.43701 36058 ft 430 kts 344°
2026-05-09 14:12 35.79359 -102.45449 36060 ft 430 kts 344°
2026-05-09 14:12 35.85132 -102.47189 36062 ft 430 kts 344°
2026-05-09 14:13 35.90926 -102.48938 36063 ft 430 kts 344°
2026-05-09 14:15 36.14220 -102.55303 36064 ft 434 kts 351°
2026-05-09 14:15 36.20170 -102.56229 36063 ft 432 kts 349°
2026-05-09 14:16 36.26121 -102.57212 36063 ft 432 kts 349°
2026-05-09 14:16 36.32077 -102.58170 36064 ft 433 kts 349°
2026-05-09 14:17 36.37992 -102.59140 36065 ft 433 kts 349°
2026-05-09 14:17 36.43952 -102.60117 36067 ft 433 kts 349°
2026-05-09 14:18 36.49896 -102.61076 36068 ft 433 kts 350°
2026-05-09 14:18 36.55859 -102.61974 36069 ft 433 kts 350°
2026-05-09 14:19 36.61832 -102.62943 36069 ft 433 kts 349°
2026-05-09 14:19 36.67777 -102.63907 36068 ft 433 kts 349°
2026-05-09 14:20 36.73735 -102.64873 36065 ft 433 kts 349°
2026-05-09 14:20 36.79670 -102.65833 36063 ft 432 kts 349°
2026-05-09 14:21 36.88572 -102.67306 36065 ft 432 kts 349°
2026-05-09 14:21 36.94513 -102.68281 36067 ft 432 kts 348°
2026-05-09 14:22 37.00437 -102.69271 36069 ft 433 kts 348°
2026-05-09 14:22 37.06367 -102.70245 36070 ft 432 kts 348°
2026-05-09 14:23 37.12334 -102.71248 36071 ft 432 kts 348°
2026-05-09 14:23 37.18281 -102.72245 36039 ft 433 kts 348°
2026-05-09 14:24 37.24220 -102.73235 36017 ft 432 kts 348°
2026-05-09 14:24 37.30138 -102.74213 35987 ft 433 kts 348°
2026-05-09 14:25 37.36122 -102.75204 35972 ft 432 kts 348°
2026-05-09 14:25 37.42036 -102.76189 35972 ft 432 kts 348°
2026-05-09 14:26 37.47958 -102.77196 35972 ft 433 kts 347°
2026-05-09 14:26 37.53674 -102.79237 35973 ft 424 kts 334°
2026-05-09 14:27 37.59094 -102.81994 35972 ft 424 kts 334°
2026-05-09 14:27 37.64543 -102.84759 35972 ft 423 kts 333°
2026-05-09 14:28 37.69962 -102.87600 35972 ft 424 kts 333°
2026-05-09 14:28 37.75381 -102.90469 35972 ft 423 kts 333°
2026-05-09 14:29 37.80777 -102.93356 35972 ft 423 kts 333°
2026-05-09 14:29 37.86177 -102.96258 35972 ft 423 kts 333°
2026-05-09 14:30 37.91585 -102.99174 35974 ft 424 kts 333°
2026-05-09 14:30 37.96988 -103.02097 35976 ft 424 kts 333°
2026-05-09 14:31 38.02378 -103.05031 35979 ft 423 kts 332°
2026-05-09 14:31 38.07760 -103.08015 35981 ft 422 kts 331°
2026-05-09 14:32 38.13118 -103.10962 35983 ft 423 kts 332°
2026-05-09 14:32 38.18501 -103.13895 35985 ft 423 kts 331°
2026-05-09 14:33 38.21210 -103.15372 35794 ft 427 kts 332°
2026-05-09 14:33 38.23982 -103.16882 35538 ft 427 kts 332°
2026-05-09 14:33 38.26680 -103.18351 35288 ft 425 kts 332°
2026-05-09 14:33 38.29372 -103.19823 35038 ft 424 kts 331°
2026-05-09 14:34 38.32093 -103.21313 34786 ft 424 kts 331°
2026-05-09 14:34 38.34790 -103.22783 34538 ft 425 kts 331°
2026-05-09 14:34 38.37471 -103.24255 34291 ft 426 kts 331°
2026-05-09 14:34 38.40199 -103.25763 34040 ft 427 kts 331°
2026-05-09 14:35 38.42911 -103.27261 33792 ft 429 kts 331°
2026-05-09 14:35 38.45667 -103.28786 33539 ft 430 kts 331°
2026-05-09 14:35 38.48390 -103.30293 33290 ft 430 kts 332°
2026-05-09 14:35 38.51105 -103.31795 33041 ft 430 kts 332°
2026-05-09 14:36 38.53851 -103.33305 32791 ft 431 kts 332°
2026-05-09 14:36 38.56597 -103.34824 32540 ft 431 kts 331°
2026-05-09 14:36 38.59359 -103.36365 32289 ft 432 kts 331°
2026-05-09 14:36 38.62094 -103.37893 32039 ft 432 kts 331°
2026-05-09 14:37 38.64844 -103.39421 31787 ft 431 kts 332°
2026-05-09 14:37 38.67582 -103.40941 31537 ft 430 kts 332°
2026-05-09 14:37 38.70297 -103.42454 31286 ft 427 kts 332°
2026-05-09 14:37 38.73008 -103.43965 31034 ft 425 kts 332°
2026-05-09 14:38 38.75709 -103.45471 30782 ft 423 kts 331°
2026-05-09 14:38 38.78328 -103.47079 30531 ft 417 kts 326°
2026-05-09 14:38 38.80757 -103.49010 30282 ft 412 kts 320°
2026-05-09 14:38 38.82980 -103.51273 30031 ft 406 kts 313°
2026-05-09 14:39 38.84929 -103.53873 29783 ft 402 kts 308°
2026-05-09 14:39 38.86776 -103.56531 29534 ft 401 kts 309°
2026-05-09 14:39 38.88652 -103.59161 29283 ft 400 kts 309°
2026-05-09 14:39 38.90543 -103.61787 29006 ft 396 kts 309°
2026-05-09 14:40 38.92364 -103.64332 28529 ft 387 kts 309°
2026-05-09 14:40 38.94154 -103.66857 27989 ft 383 kts 308°
2026-05-09 14:40 38.95949 -103.69414 27420 ft 388 kts 308°
2026-05-09 14:40 38.97757 -103.71975 26839 ft 382 kts 309°
2026-05-09 14:41 38.99507 -103.74445 26279 ft 375 kts 309°
2026-05-09 14:41 39.01239 -103.76903 25722 ft 370 kts 309°
2026-05-09 14:41 39.02964 -103.79363 25168 ft 372 kts 309°
2026-05-09 14:41 39.04671 -103.81808 24607 ft 370 kts 309°
2026-05-09 14:42 39.06372 -103.84236 24052 ft 364 kts 309°
2026-05-09 14:42 39.08058 -103.86633 23503 ft 358 kts 309°
2026-05-09 14:42 39.09716 -103.88997 22965 ft 359 kts 309°
2026-05-09 14:42 39.11385 -103.91393 22412 ft 359 kts 310°
2026-05-09 14:43 39.13042 -103.93770 21996 ft 350 kts 310°
2026-05-09 14:43 39.14643 -103.96084 21406 ft 349 kts 309°
2026-05-09 14:43 39.16243 -103.98425 20875 ft 350 kts 310°
2026-05-09 14:43 39.17846 -104.00751 20340 ft 344 kts 310°
2026-05-09 14:44 39.19429 -104.03044 19819 ft 338 kts 310°
2026-05-09 14:44 39.20966 -104.05285 19314 ft 336 kts 310°
2026-05-09 14:44 39.22522 -104.07564 18802 ft 337 kts 310°
2026-05-09 14:44 39.24035 -104.09763 18461 ft 326 kts 311°
2026-05-09 14:45 39.25543 -104.11955 18231 ft 330 kts 311°
2026-05-09 14:45 39.27065 -104.14183 17862 ft 330 kts 311°
2026-05-09 14:45 39.28552 -104.16391 17532 ft 318 kts 308°
2026-05-09 14:45 39.29745 -104.18740 17270 ft 307 kts 297°
2026-05-09 14:46 39.30521 -104.21259 16882 ft 301 kts 287°
2026-05-09 14:46 39.30962 -104.23885 16479 ft 297 kts 283°
2026-05-09 14:46 39.31368 -104.26447 16092 ft 291 kts 284°
2026-05-09 14:46 39.31796 -104.28973 15712 ft 286 kts 284°
2026-05-09 14:47 39.32210 -104.31494 15339 ft 289 kts 283°
2026-05-09 14:47 39.32616 -104.34036 14955 ft 290 kts 283°
2026-05-09 14:47 39.33015 -104.36555 14577 ft 285 kts 283°
2026-05-09 14:47 39.33415 -104.39055 14208 ft 280 kts 283°
2026-05-09 14:48 39.33804 -104.41510 13984 ft 277 kts 283°
2026-05-09 14:48 39.34186 -104.43916 13801 ft 267 kts 283°
2026-05-09 14:48 39.34546 -104.46223 13483 ft 262 kts 283°
2026-05-09 14:48 39.34900 -104.48503 13158 ft 258 kts 283°
2026-05-09 14:49 39.35253 -104.50759 12836 ft 255 kts 283°
2026-05-09 14:49 39.35606 -104.53010 12519 ft 256 kts 283°
2026-05-09 14:49 39.35959 -104.55272 12254 ft 255 kts 283°
2026-05-09 14:49 39.36303 -104.57481 12154 ft 246 kts 282°
2026-05-09 14:50 39.36784 -104.59568 11997 ft 240 kts 298°
2026-05-09 14:50 39.37637 -104.61372 12004 ft 231 kts 302°
2026-05-09 14:50 39.38485 -104.63123 12008 ft 234 kts 305°
2026-05-09 14:50 39.39688 -104.64562 11999 ft 238 kts 329°
2026-05-09 14:51 39.41177 -104.65512 12013 ft 239 kts 330°
2026-05-09 14:51 39.42700 -104.66390 12003 ft 242 kts 342°
2026-05-09 14:51 39.44376 -104.66558 12008 ft 246 kts 358°
2026-05-09 14:51 39.46102 -104.66482 12010 ft 246 kts 356°
2026-05-09 14:52 39.47808 -104.66469 12009 ft 246 kts 356°
2026-05-09 14:52 39.49515 -104.66448 11982 ft 248 kts 356°
2026-05-09 14:52 39.51260 -104.66429 11525 ft 256 kts 356°
2026-05-09 14:52 39.53032 -104.66404 11122 ft 257 kts 358°
2026-05-09 14:53 39.54821 -104.66361 10760 ft 256 kts 358°
2026-05-09 14:53 39.56590 -104.66335 10421 ft 254 kts 358°
2026-05-09 14:53 39.58337 -104.66317 10087 ft 253 kts 357°
2026-05-09 14:53 39.60083 -104.66303 9782 ft 249 kts 358°
2026-05-09 14:54 39.61782 -104.66281 9575 ft 238 kts 358°
2026-05-09 14:54 39.63404 -104.66271 9291 ft 231 kts 357°
2026-05-09 14:54 39.64979 -104.66267 8994 ft 226 kts 358°
2026-05-09 14:54 39.66555 -104.66244 8687 ft 222 kts 358°
2026-05-09 14:55 39.68073 -104.66228 8392 ft 217 kts 358°
2026-05-09 14:55 39.69551 -104.66210 8094 ft 211 kts 358°
2026-05-09 14:55 39.70983 -104.66193 7814 ft 201 kts 359°
2026-05-09 14:55 39.72333 -104.66177 7523 ft 190 kts 358°
2026-05-09 14:56 39.73608 -104.66163 7286 ft 177 kts 358°
2026-05-09 14:56 39.74802 -104.66148 7043 ft 165 kts 358°
2026-05-09 14:56 39.75908 -104.66135 6848 ft 160 kts 359°
2026-05-09 14:56 39.77025 -104.66122 6624 ft 163 kts 359°
2026-05-09 14:57 39.78144 -104.66108 6392 ft 160 kts 358°
2026-05-09 14:57 39.79262 -104.66102 6177 ft 158 kts 357°
2026-05-09 14:57 39.80348 -104.66084 5969 ft 158 kts 358°
2026-05-09 14:57 39.81451 -104.66074 5748 ft 157 kts 358°
2026-05-09 14:58 39.82541 -104.66056 5549 ft 156 kts 357°
2026-05-09 14:58 39.83580 -104.66048 5446 ft 138 kts 358°
2026-05-09 14:58 39.84398 -104.66039 5443 ft 91 kts
2026-05-09 14:58 39.84890 -104.66033 5443 ft 57 kts 360°
2026-05-09 14:59 39.85249 -104.66027 5443 ft 46 kts
2026-05-09 14:59 39.85537 -104.66023 5443 ft 37 kts
2026-05-09 14:59 39.85775 -104.66021 5443 ft 30 kts
2026-05-09 14:59 39.85969 -104.66018 5443 ft 25 kts
2026-05-09 15:00 39.86095 -104.66057 5443 ft 15 kts 300°
2026-05-09 15:00 39.86105 -104.66183 5443 ft 13 kts 270°
2026-05-09 15:00 39.86109 -104.66303 5443 ft 13 kts 288°
2026-05-09 15:00 39.86190 -104.66345 5443 ft 15 kts
2026-05-09 15:01 39.86387 -104.66343 5443 ft 11 kts
2026-05-09 15:01 39.86444 -104.66341 5443 ft 5 kts
2026-05-09 15:01 39.86459 -104.66341 5443 ft 2 kts
2026-05-09 15:02 39.86465 -104.66341 5443 ft 0 kts
2026-05-09 15:02 39.86492 -104.66351 5443 ft 8 kts 315°
2026-05-09 15:02 39.86503 -104.66449 5443 ft 12 kts 274°
2026-05-09 15:02 39.86478 -104.66555 5443 ft 13 kts 214°
2026-05-09 15:03 39.86412 -104.66621 5443 ft 11 kts 252°
2026-05-09 15:03 39.86411 -104.66727 5443 ft 11 kts 274°
2026-05-09 15:03 39.86410 -104.66830 5443 ft 11 kts 269°
2026-05-09 15:03 39.86410 -104.66856 5443 ft 0 kts 270°
2026-05-09 15:04 39.86410 -104.66859 5443 ft 0 kts 272°
2026-05-09 15:04 39.86410 -104.66870 5443 ft 2 kts 270°
2026-05-09 15:06 39.86414 -104.67466 5443 ft 12 kts 270°
2026-05-09 15:06 39.86414 -104.67561 5443 ft 4 kts 260°
2026-05-09 15:06 39.86386 -104.67570 5443 ft 4 kts 180°
2026-05-09 15:06 39.86359 -104.67570 5443 ft 2 kts 180°
2026-05-09 15:07 39.86356 -104.67570 5443 ft 0 kts 180°